Location: Newark
(41.8083°N, 72.2500°W)
Time: 09:56:52
(UTC+00:00)

Vanguard 1 Rocket - Pass Details

Date: 11 December 2021
Orbit: 651 x 4224 km, 34.3° (Epoch: 15 January)

Event Time Altitude Azimuth Distance (km) Brightness Sun altitude
Exits shadow 07:26:15 48° 126° (SE) 2,802 9.7 -51.1°
Drops below altitude 10° 07:39:31 10° 101° (E) 6,250 12.1 -48.7°
Sets 07:45:32 0° 99° (E) 7,745 12.8 -47.6°
